Location: Audignicourt
(49.4788°N, 3.1340°E)
Time: 12:29:45
(UTC+00:00)

Cosmos 841 Rocket - Pass Details

Date: 15 May 2026
Orbit: 741 x 767 km, 74.0° (Epoch: 8 June)

Event Time Altitude Azimuth Distance (km) Brightness Sun altitude
Exits shadow 23:27:22 35° 225° (SW) 1,206 4.2 -21.4°
Maximum altitude 23:29:30 67° 296° (WNW) 828 3.7 -21.4°
Drops below altitude 10° 23:34:44 10° 19° (NNE) 2,313 7.0 -21.4°
Sets 23:37:09 0° 23° (NNE) 3,246 7.9 -21.5°
